Location: Unspecified
(48.2082°N, 0.0000°E)
Time: 11:56:02
(UTC+00:00)

A-11 Canister half - Pass Details

Date: 24 June 2019
Orbit: 1514 x 1685 km, 47.2° (Epoch: 22 July)

Event Time Altitude Azimuth Distance (km) Brightness Sun altitude
Rises 10:40:49 0° 237° (WSW) 4,907 11.6 60.4°
Reaches altitude 10° 10:44:02 10° 234° (SW) 3,905 11.2 60.7°
Maximum altitude 10:53:52 65° 156° (SSE) 1,751 12.4 61.7°
Drops below altitude 10° 11:03:21 10° 77° (ENE) 3,783 11.3 62.6°
Sets 11:06:25 0° 75° (ENE) 4,747 11.7 62.8°
